Volver al catálogo

NIMBUS 2 DEB

LostSSO
NORAD 42437·DEBRIS·🇺🇸 United States

Lanzado May 15, 1966 desde Vandenberg Space Force Base

Loading…

Próximos Pases (próximas 24 horas)

TLE

ObsoletoSource: Space-Track

Época: Apr 10, 2019, 13:25 UTC

1 42437U 66040BQ  19100.55964850  .00001220  00000-0  24151-2 0  9999
2 42437 100.3270 223.3541 0048900 303.8230  55.8245 13.37148613171831

Sigue NIMBUS 2 DEB en tiempo real con AllMySat

Download on the App Store